Location: Bergnershof
(48.9468°N, 10.9431°E)
Time: 23:48:09
(UTC+00:00)

Cosmos 1515 - Pass Details

Date: 03 March 2021
Orbit: 504 x 516 km, 82.5° (Epoch: 13 April)

Event Time Altitude Azimuth Distance (km) Brightness Sun altitude
Rises 17:54:04 0° 350° (N) 2,648 7.4 -9.2°
Reaches altitude 10° 17:56:13 10° 351° (N) 1,754 6.5 -9.5°
Maximum altitude 18:00:04 86° 77° (ENE) 523 3.6 -10.2°
Drops below altitude 10° 18:03:53 10° 170° (S) 1,733 6.2 -10.8°
Sets 18:06:00 0° 171° (S) 2,612 7.2 -11.1°
